Location: Kershaw
(34.5481°N, 80.5823°W)
Time: 07:34:58
(UTC+00:00)

Explorer 7 - Pass Details

Date: 09 October 2022
Orbit: 481 x 665 km, 50.3° (Epoch: 28 November)

Event Time Altitude Azimuth Distance (km) Brightness Sun altitude
Rises 14:49:07 0° 276° (W) 2,981 10.2 37.3°
Reaches altitude 10° 14:52:06 10° 295° (WNW) 2,082 9.4 37.8°
Maximum altitude 14:55:29 19° 339° (NNW) 1,588 8.9 38.2°
Drops below altitude 10° 14:58:53 10° 24° (NNE) 2,085 9.7 38.7°
Sets 15:01:52 0° 43° (NE) 2,986 10.5 39.1°
